Regional Weather Roundup
Issued by NWS

Home | Current Version | Previous Version | Graphics & Text | Print | Product List | Glossary On
Versions: 1 2 3 4 5 6 7 8 9 10 11 12 13 14 15 16 17 18 19 20 21 22 23 24 25 26 27 28 29 30 31 32 33 34 35 36 37 38 39 40 41 42 43 44 45 46 47 48 49 50
000
ASUS43 KLOT 291903
RWRIL

ILLINOIS REGIONAL WEATHER ROUNDUP
NATIONAL WEATHER SERVICE CHICAGO/ROMEOVILLE IL
200 PM CDT SUN MAY 29 2016

NOTE: "FAIR" INDICATES FEW OR NO CLOUDS BELOW 12,000 FEET WITH NO
SIGNIFICANT WEATHER AND/OR OBSTRUCTIONS TO VISIBILITY.

* THESE STATIONS ARE NOT UNDER NWS QUALITY CONTROL. THEY ALSO MAY NOT
  REPORT WEATHER SUCH AS PRECIPITATION OR FOG.

ILZ001-002-007-009-015-016-024-292000-
NORTHWEST ILLINOIS

CITY           SKY/WX    TMP DP  RH WIND       PRES   REMARKS
MOLINE         MOSUNNY   80  58  46 W13G21    30.04S HX  80
STERLING*      MOSUNNY   79  61  53 W13G24    30.04S HX  80
$$

ILZ003-004-008-010-011-017-018-292000-
NORTH CENTRAL ILLINOIS

CITY           SKY/WX    TMP DP  RH WIND       PRES   REMARKS
ROCKFORD       PTSUNNY   78  58  49 W14G23    30.03S
FREEPORT*      PTSUNNY   75  59  58 W14G21    30.04S
ROCHELLE*      PTSUNNY   77  61  58 W15G21    30.03F
$$

ILZ005-006-012>014-019>023-292000-
NORTHEAST ILLINOIS

CITY           SKY/WX    TMP DP  RH WIND       PRES   REMARKS
CHICAGO-OHARE  MOSUNNY   76  60  57 SW17      30.01S
CHICAGO-MIDWAY MOSUNNY   79  58  48 W15       30.01S HX  80
AURORA         MOSUNNY   77  63  61 W14       30.03F
LANSING*       MOSUNNY   79  58  48 W14       30.02S HX  80
WAUKEGAN       MOSUNNY   77  61  57 SW8G22    29.98F
DUPAGE AIRPORT PTSUNNY   76  59  55 SW15      30.02F
WHEELING       PTSUNNY   77  60  55 W10G22    30.01F
NORTHERLY ISL    N/A     76  56  49 W15         N/A
NORTHERLY ISL    N/A     76  56  49 W15         N/A
$$

LMZ740>746-292000-
SOUTHERN LAKE MICHIGAN

STATION/POSITION SKY/WX   TEMP    WIND        PRES    VSBY  WAVE
                          AIR SEA DIR/SP/G                  HT/PER
                          (F)     (DEG/KT/KT) (MB)    (MI)  (FT/S)
SOUTHERN BUOY              57 51  200/ 10/ 12 1014.9          1/ 3
WILMETTE HARBOR            65 54  280/ 10/ 14   N/A           1/ 2
HARRISON CRIB              75     260/ 19/ 21   N/A
BURNHAM HARBOR             76     200/ 13/ 15   N/A
CALUMET HARBOR             79     230/  8/ 19 1015.7R
BURNS HARBOR               73     250/ 18/ 24 1016.6R
MICHIGAN CITY              68     240/ 18/ 19   N/A
MICHIGAN CITY 6N           65 57  280/ 10/ 14   N/A           1/ 3
ST. JOSEPH                 66 62  260/  8/ 10   N/A           1
$$

ILZ025>027-034>036-040-047-049-050-058-095>099-292000-
WEST-CENTRAL ILLINOIS

CITY           SKY/WX    TMP DP  RH WIND       PRES   REMARKS
QUINCY         MOSUNNY   81  59  47 NW8       30.09S HX  81
MACOMB*        SUNNY     80  58  46 W9        30.10S HX  80
PITTSFIELD*    MOSUNNY   82  63  53 W12       30.10F HX  83
$$

ILZ028>032-037-038-041>044-048-051>054-059>061-292000-
CENTRAL ILLINOIS

CITY           SKY/WX    TMP DP  RH WIND       PRES   REMARKS
BLOOMINGTON    MOSUNNY   80  62  54 NW15      30.08F HX  81
DECATUR        SUNNY     84  57  39 W14G22    30.06F HX  83
PEORIA         MOSUNNY   82  55  39 NW8G18    30.06F HX  81
SPRINGFIELD    MOSUNNY   85  56  37 NW15      30.07F HX  84
TAYLORVILLE    NOT AVBL
$$

ILZ033-039-045-046-055>057-062-063-292000-
EAST-CENTRAL ILLINOIS

CITY           SKY/WX    TMP DP  RH WIND       PRES   REMARKS
CHAMPAIGN      MOSUNNY   86  55  34 W15G24    30.06F HX  84
MATTOON        MOSUNNY   82  56  40 SW9       30.06F HX  82
$$

ILZ079-100>102-292000-
SOUTHWEST ILLINOIS

CITY           SKY/WX    TMP DP  RH WIND       PRES   REMARKS
ALTON          MOSUNNY   84  59  42 W9        30.10F HX  84
CAHOKIA*       PTSUNNY   84  55  36 W3        30.09F HX  83
SPARTA*        SUNNY     82  60  47 NW6       30.10F HX  82
$$

ILZ064>066-069>071-074>076-080>082-084>086-088>090-092>094-292000-
SOUTH-CENTRAL ILLINOIS

CITY           SKY/WX    TMP DP  RH WIND       PRES   REMARKS
CARBONDALE     MOSUNNY   83  61  47 NW8       30.09S HX  83
MARION         PTSUNNY   84  68  58 NW9       30.09F HX  87
MT. VERNON     MOSUNNY   84  63  48 W6        30.09S HX  85
SALEM*         SUNNY     83  60  45 NW8       30.09F HX  84
$$

ILZ067-068-072-073-078-083-087-091-292000-
SOUTHEAST ILLINOIS

CITY           SKY/WX    TMP DP  RH WIND       PRES   REMARKS
LAWRENCEVILLE  MOSUNNY   84  67  56 W10       30.06F HX  86
FLORA*         MOSUNNY   85  64  49 NW9       30.08F HX  86
HARRISBURG*    MOSUNNY   83  69  62 NW7       30.08S HX  87
ROBINSON*      MOSUNNY   84  65  52 W10       30.07F HX  86
$$

ABBREVIATIONS USED IN REMARKS
   TC - TEMPERATURE IN CELSIUS
  WCI - WIND CHILL INDEX
   HX - HEAT INDEX
  VSB - VISIBILITY
$$





USA.gov is the U.S. government's official web portal to all federal, state and local government web resources and services.